CDT,Max TemperatureF,Mean TemperatureF,Min TemperatureF,Max Dew PointF,MeanDew PointF,Min DewpointF,Max Humidity, Mean Humidity, Min Humidity, Max Sea Level PressureIn, Mean Sea Level PressureIn, Min Sea Level PressureIn, Max VisibilityMiles, Mean VisibilityMiles, Min VisibilityMiles, Max Wind SpeedMPH, Mean Wind SpeedMPH, Max Gust SpeedMPH,PrecipitationIn, CloudCover, Events, WindDirDegrees
2012-9-1,82,72,64,64,57,53,81,60,38,30.10,30.05,30.00,10,10,10,14,4,21,0.00,1,,52
2012-9-2,88,74,60,71,65,57,100,78,57,30.01,29.95,29.89,10,9,2,8,2,,0.00,1,,54
2012-9-3,89,75,62,72,67,62,100,94,59,29.96,29.93,29.88,10,4,0,14,1,22,0.06,1,Fog-Rain-Thunderstorm,246
2012-9-4,91,78,64,75,69,65,100,84,48,29.92,29.87,29.75,10,5,0,7,1,,0.02,3,Fog-Rain-Thunderstorm,240
2012-9-5,93,72,62,66,64,62,100,79,54,29.86,29.82,29.78,10,7,1,14,6,22,0.00,1,,297
2012-9-6,82,68,55,63,57,48,100,87,32,30.00,29.93,29.87,10,4,0,7,1,,0.01,2,Fog,233
2012-9-7,69,62,55,59,56,47,96,80,58,29.96,29.90,29.82,10,10,9,8,3,18,0.04,3,Rain,1
2012-9-8,75,60,46,54,49,46,97,67,38,30.00,29.91,29.75,10,10,10,20,6,33,0.01,1,Thunderstorm,289
2012-9-9,75,60,48,54,50,48,100,75,41,30.17,30.11,29.97,10,10,9,7,2,,0.00,1,,349
2012-9-10,79,61,44,55,48,44,100,88,37,30.21,30.15,30.02,10,4,0,13,1,20,0.00,2,Fog,197
2012-9-11,87,68,50,59,55,49,96,60,36,30.04,29.99,29.92,10,10,10,15,5,30,0.00,0,,199
2012-9-12,84,68,55,62,53,38,97,61,31,30.22,30.08,29.99,10,10,10,13,5,21,0.00,2,,338
2012-9-13,64,54,44,54,50,45,100,89,67,30.37,30.34,30.24,10,6,0,17,4,24,0.15,4,Fog-Rain,335
2012-9-14,77,60,44,53,47,44,100,84,36,30.36,30.33,30.28,10,5,0,8,1,,0.00,3,Fog,325
2012-9-15,80,60,42,52,46,43,100,83,28,30.33,30.25,30.12,10,5,0,12,1,20,0.00,1,Fog,232
2012-9-16,78,60,42,53,47,43,100,87,32,30.11,30.06,29.94,10,5,0,13,1,22,0.00,0,Fog,211
2012-9-17,71,56,42,56,48,42,100,90,54,29.94,29.91,29.87,10,6,0,13,3,21,0.04,4,Fog-Rain,334
2012-9-18,64,50,33,43,38,31,100,85,35,30.04,29.98,29.93,10,5,0,12,1,20,0.00,1,Fog,315
2012-9-19,78,54,32,58,42,32,100,62,33,30.03,29.85,29.66,10,10,3,20,5,33,0.05,4,Rain-Thunderstorm,220
2012-9-20,68,54,39,44,39,34,100,66,30,29.94,29.91,29.87,10,10,8,18,4,28,0.00,0,,271
2012-9-21,64,50,39,52,48,39,100,89,65,29.94,29.87,29.80,10,7,0,12,3,,0.41,7,Fog-Rain,209
2012-9-22,57,46,35,47,40,32,100,81,53,30.24,30.02,29.78,10,7,0,20,7,26,0.00,5,Fog,285
2012-9-23,60,46,33,40,34,31,100,86,35,30.33,30.26,30.22,10,5,0,15,2,21,0.00,2,Fog,243
2012-9-24,75,52,28,42,32,28,100,82,27,30.24,30.11,29.83,10,5,0,17,2,25,0.00,2,Fog,221
2012-9-25,81,60,39,50,45,40,100,69,27,29.91,29.84,29.79,10,10,5,9,2,,0.00,0,,262
2012-9-26,69,50,33,45,37,34,100,86,31,30.20,30.04,29.96,10,6,1,7,1,,0.00,0,,56
2012-9-27,69,49,32,43,37,32,100,83,34,30.32,30.25,30.19,10,6,0,7,1,,0.00,1,Fog,49
2012-9-28,73,52,32,46,39,32,100,82,31,30.28,30.21,30.14,10,5,0,6,0,,0.00,1,Fog,180
2012-9-29,82,60,37,46,41,37,100,79,21,30.15,30.09,29.98,10,6,0,10,1,,0.00,0,Fog,356
2012-9-30,73,54,35,48,40,36,100,84,31,30.04,30.00,29.94,10,6,0,8,1,,0.00,0,Fog,37